Regional Weather Roundup
Issued by NWS Green Bay, WI

Home | Current Version | Previous Version | Graphics & Text | Print | Product List | Glossary Off
Versions: 1 2 3 4 5 6 7 8 9 10 11 12 13 14 15 16 17 18 19 20 21 22 23 24 25 26 27 28 29 30 31 32 33 34 35 36 37 38 39 40 41 42 43 44 45 46 47 48 49 50

000
ASUS43 KGRB 050700
RWRGRB

NORTH-CENTRAL AND NORTHEAST WISCONSIN REGIONAL WEATHER ROUNDUP
NATIONAL WEATHER SERVICE GREEN BAY WI
200 AM CDT SUN JUL 05 2015

WIZ005-009-010>012-018-019-050800-
NORTH CENTRAL WISCONSIN

CITY           SKY/WX    TMP DP  RH WIND       PRES   REMARKS
IRONWOOD         N/A     68  63  83 SW7       29.92F
MANITOWISH WTR NOT AVBL
ARBOR VITAE    NOT AVBL
EAGLE RIVER    NOT AVBL
LAND O LAKES   NOT AVBL
RHINELANDER    FOG       61  60  97 CALM      30.03S VSB 3/4
PHILLIPS       NOT AVBL
ANTIGO         NOT AVBL
TOMAHAWK       NOT AVBL
MERRILL        NOT AVBL
$$

WIZ013-073-050800-
NORTHEAST WISCONSIN

CITY           SKY/WX    TMP DP  RH WIND       PRES   REMARKS
IRON MOUNTAIN    N/A     60  58  92 CALM      30.01S FOG
MARINETTE        N/A     64  57  77 CALM      30.01S
$$

WIZ017-030-035>037-045-050800-
CENTRAL WISCONSIN

CITY           SKY/WX    TMP DP  RH WIND       PRES   REMARKS
MEDFORD        NOT AVBL
WAUSAU           N/A     67  64  90 S6        30.01R FOG
MOSINEE        NOT AVBL
MARSHFIELD     MOCLDY    64  60  87 S5        30.03R FOG
WISC RAPIDS      N/A     64  61  90 CALM      30.04R
STEVENS POINT  NOT AVBL
WAUPACA        NOT AVBL
SHAWANO        NOT AVBL
CLINTONVILLE   NOT AVBL
$$

WIZ038-039-048-051-050800-
FOX VALLEY

CITY           SKY/WX    TMP DP  RH WIND       PRES   REMARKS
NWS GREEN BAY    N/A     62  60  93 CALM      30.02S FOG
APPLETON       NOT AVBL
OSHKOSH          N/A     64  60  87 S6        30.03R
FOND DU LAC      N/A     64  61  90 S3        30.03R
$$

WIZ022-050-052-050800-
EAST CENTRAL WISCONSIN

CITY           SKY/WX    TMP DP  RH WIND       PRES   REMARKS
STURGEON BAY     N/A     61  55  82 S6        30.05F
MANITOWOC      NOT AVBL
SHEBOYGAN        N/A     60  57  89 S3        30.04R
$$

LMZ563-521-522-541>543-050800-
LAKESHORE

STATION/POSITION TIME  TEMP    WIND        PRES    VSBY  WAVE
                       AIR SEA DIR/SP/G                  HT/PER
                 (UTC) (F)     (DEG/KT/KT) (MB)    (MI)  (FT/S)
SHEBOYGAN LKSHOR 0600   63     200/  7/  8 1017.0R
KEWAUNEE LKSHORE 0600   62     140/  2/  5 1016.3R
NORTHPORT PIER   0600   62     160/  4/  6 1016.9R
N MID LAKE BUOY  0550   54 49  190/  6/  6 1017.2R         0
S GREEN BAY BUOY 0630   68 69  170/  8/ 12 1017.9R
CHAMBERS ISLAND  0600   65     140/  4/  6 1016.6R
MENOMINEE LKSHOR 0600   67     170/  9/ 11 1017.0R
$$



USA.gov is the U.S. government's official web portal to all federal, state and local government web resources and services.